[[{"header":{"parameterUnit":"m.s-1","parameterCategory":2,"la1":30.2991,"la2":30.254,"lo1":-89.0895,"lo2":-89.0444,"dy":0.0017,"dx":0.0017,"nx":28,"ny":28,"refTime":"2024-02-29T09:00:00:Z","depth":"0","parameterNumber":2,"parameterNumberName":"U-component_of_CURRENTS"},"data":[0,0,0,0,0,0,0,0,0,0,0,0,0,0,0,0,0,0,0,0,0,0,0,0,0,0,0,0,0,0,0,0,0,0,0,0,0,0,0,0,0,0,0,0,0,0,0,0,0,0,0,0,0,0,0,0,0,0,-0.2112,-0.2113,0,-0.2141,-0.2141,-0.2141,-0.2142,-0.2142,-0.2142,-0.2142,-0.2145,-0.2146,-0.2146,0,0,0,0,0,0,0,0,0,0,0,0,0,-0.2058,-0.2059,-0.2112,-0.2113,-0.2113,-0.2141,-0.2141,-0.2141,-0.2142,-0.2142,-0.2142,-0.2142,-0.2145,-0.2146,-0.2146,0,0,0,0,0,0,0,0,0,0,0,0,0,-0.2081,-0.2059,-0.2112,-0.2119,-0.212,-0.214,-0.2141,-0.2141,-0.2142,-0.2142,-0.2142,-0.2142,-0.2145,-0.2146,-0.2146,-0.2153,0,0,-0.2147,-0.2147,0,0,0,0,0,0,0,0,-0.208,-0.2083,-0.2117,-0.2118,-0.2119,-0.2139,-0.2123,-0.2144,-0.2142,-0.2132,-0.2142,-0.2141,-0.2143,-0.2143,-0.2147,-0.2153,-0.2153,-0.2147,-0.2147,-0.2148,-0.2148,0,0,0,0,0,0,0,-0.2078,-0.2082,-0.2122,-0.2118,-0.2119,-0.212,-0.2123,-0.2127,-0.2136,-0.2133,-0.2133,-0.2139,-0.2143,-0.2146,-0.2147,-0.2153,-0.2147,-0.2147,-0.2148,-0.2148,-0.2165,-0.2165,0,0,0,0,0,0,-0.2079,-0.2081,-0.2121,-0.2123,-0.2101,-0.2121,-0.2124,-0.2132,-0.2137,-0.2138,-0.214,-0.2139,-0.2146,-0.2146,-0.2147,-0.2158,-0.2148,-0.2148,-0.2148,-0.2165,-0.2165,-0.2165,0,0,0,0,0,0,-0.2078,-0.2083,-0.212,-0.2103,-0.2108,-0.2122,-0.2131,-0.2132,-0.2137,-0.2143,-0.2143,-0.2143,-0.2146,-0.2146,-0.2153,-0.2158,-0.2148,-0.2148,-0.2164,-0.2165,-0.2165,-0.218,0,0,0,0,0,0,-0.2076,-0.2082,-0.2086,-0.2104,-0.211,-0.2135,-0.2131,-0.2133,-0.2142,-0.2142,-0.2146,-0.2146,-0.2145,-0.2153,-0.2154,-0.2159,-0.2149,-0.2164,-0.2165,-0.2165,-0.2179,-0.218,-0.2182,0,0,0,0,0,-0.2074,-0.2084,-0.2086,-0.209,-0.2115,-0.2136,-0.2139,-0.2146,-0.2143,-0.2149,-0.215,-0.2146,-0.2156,-0.2154,-0.2155,-0.216,-0.2164,-0.2164,-0.2165,-0.2178,-0.218,-0.2182,0,0,0,0,0,0,-0.2062,-0.2085,-0.2088,-0.2103,-0.2119,-0.2137,-0.2143,-0.2148,-0.2154,-0.2151,-0.2151,-0.2152,-0.2159,-0.2158,-0.2155,-0.2165,-0.2158,-0.2159,-0.2168,-0.217,-0.2171,-0.2183,-0.2149,0,0,0,0,0,-0.2061,-0.2072,-0.2095,-0.2105,-0.2114,-0.2128,-0.2136,-0.2143,-0.2153,-0.2155,-0.2157,-0.2158,-0.2163,-0.2165,-0.2168,-0.2175,-0.2179,-0.2178,-0.218,-0.2181,-0.2191,-0.2192,-0.2195,-0.2167,-0.2167,-0.2167,0,0,-0.2058,-0.2073,-0.2078,-0.2103,-0.2114,-0.2134,-0.2132,-0.2148,-0.2163,-0.2155,-0.2168,-0.2164,-0.2166,-0.2174,-0.2177,-0.2173,-0.2193,-0.2182,-0.2183,-0.2193,-0.2193,-0.2196,-0.2199,-0.2167,-0.2167,-0.2167,0,0,-0.2062,-0.2071,-0.2083,-0.2101,-0.2124,-0.2136,-0.2142,-0.2161,-0.2166,-0.2179,-0.2176,-0.2179,-0.2184,-0.2189,-0.2191,-0.2203,-0.22,-0.2198,-0.2216,-0.2217,-0.222,-0.2222,-0.2237,-0.2241,-0.2199,-0.2199,-0.2199,0,-0.2057,-0.2077,-0.209,-0.211,-0.2127,-0.2138,-0.2159,-0.2171,-0.2188,-0.2195,-0.2185,-0.2195,-0.2193,-0.2209,-0.2212,-0.2207,-0.221,-0.2209,-0.2219,-0.2222,-0.2224,-0.2239,-0.2242,-0.22,-0.2199,-0.2199,-0.2199,0,-0.2073,-0.2091,-0.2101,-0.2131,-0.215,-0.2169,-0.2192,-0.2204,-0.2207,-0.2217,-0.2228,-0.2224,-0.223,-0.2227,-0.2224,-0.2238,-0.2237,-0.2221,-0.2216,-0.2227,-0.2243,-0.2246,-0.2201,-0.22,-0.22,-0.22,0,0,-0.2055,-0.2103,-0.2105,-0.2123,-0.2163,-0.2178,-0.2207,-0.2235,-0.2256,-0.2255,-0.2278,-0.2274,-0.2267,-0.2269,-0.2261,-0.2263,-0.2279,-0.2249,-0.2249,-0.2266,-0.2291,-0.2335,-0.2343,-0.2259,-0.226,-0.226,-0.2299,0,-0.2062,-0.2098,-0.2125,-0.2159,-0.218,-0.2208,-0.2236,-0.2261,-0.228,-0.2304,-0.2298,-0.2311,-0.2284,-0.2286,-0.2283,-0.2284,-0.2287,-0.2271,-0.2276,-0.2277,-0.2316,-0.2349,-0.2363,-0.2402,-0.2302,-0.2303,-0.2303,0,-0.2067,-0.2091,-0.2124,-0.2174,-0.2186,-0.2208,-0.2255,-0.2283,-0.2323,-0.2337,-0.2348,-0.235,-0.2359,-0.2329,-0.2333,-0.2322,-0.2309,-0.2304,-0.2305,-0.2346,-0.2328,-0.2373,-0.2412,-0.2417,-0.2308,-0.2308,-0.2308,0,-0.2036,-0.2089,-0.2112,-0.213,-0.2189,-0.2206,-0.2234,-0.2283,-0.232,-0.2356,-0.2389,-0.2389,-0.2402,-0.2381,-0.2379,-0.235,-0.2393,-0.2348,-0.2378,-0.2381,-0.2396,-0.24,-0.2444,-0.2348,-0.2348,-0.2348,-0.2348,0,-0.203,-0.2047,-0.2097,-0.2108,-0.2141,-0.2185,-0.2229,-0.2263,-0.2327,-0.2378,-0.2395,-0.244,-0.2414,-0.2439,-0.2408,-0.2427,-0.2413,-0.24,-0.2399,-0.2403,-0.2407,-0.2414,-0.2404,-0.235,-0.2349,-0.2349,-0.2349,0,-0.199,-0.2025,-0.2054,-0.2108,-0.2127,-0.2144,-0.2226,-0.226,-0.2327,-0.2399,-0.2412,-0.2484,-0.2517,-0.2512,-0.2504,-0.2483,-0.2473,-0.2486,-0.2507,-0.2508,-0.2526,-0.2516,-0.2516,-0.2466,-0.2516,-0.2518,-0.2519,0,-0.1971,-0.1978,-0.2037,-0.2053,-0.2075,-0.2118,-0.2151,-0.2236,-0.2288,-0.2429,-0.2461,-0.2538,-0.2606,-0.2645,-0.2625,-0.2614,-0.2537,-0.2597,-0.2541,-0.2555,-0.2541,-0.2479,-0.243,-0.2565,-0.2566,-0.2567,-0.2568,0,-0.1922,-0.194,-0.1959,-0.2003,-0.2034,-0.2087,-0.2147,-0.2201,-0.2314,-0.2411,-0.2546,-0.2626,-0.2706,-0.2749,-0.2751,-0.2706,-0.2578,-0.2621,-0.2621,-0.2587,-0.2536,-0.2478,-0.2519,-0.2579,-0.2578,-0.2577,-0.2577,-0.2576,-0.1868,-0.187,-0.1898,-0.1934,-0.1979,-0.2041,-0.2057,-0.2178,-0.229,-0.2454,-0.2575,-0.2755,-0.2838,-0.2868,-0.2821,-0.2771,-0.2675,-0.2694,-0.2683,-0.2619,-0.2571,-0.2656,-0.2722,-0.2722,-0.2722,-0.2722,-0.2721,0,-0.1792,-0.1803,-0.183,-0.187,-0.189,-0.1943,-0.2033,-0.206,-0.2184,-0.2449,-0.261,-0.2921,-0.2978,-0.3,-0.2989,-0.2882,-0.2744,-0.2775,-0.2682,-0.2625,-0.2704,-0.2708,-0.2793,-0.2793,-0.2793,-0.2793,-0.2793,-0.2793,-0.1748,-0.1737,-0.1758,-0.1762,-0.1786,-0.1789,-0.1815,-0.191,-0.2078,-0.2397,-0.2703,-0.298,-0.3042,-0.3253,-0.3133,-0.2974,-0.2818,-0.2748,-0.2676,-0.2751,-0.2742,-0.2732,-0.2734,-0.2823,-0.2823,-0.2554,-0.2552,-0.2551]},{"header":{"parameterUnit":"m.s-1","parameterCategory":2,"la1":30.2991,"la2":30.254,"lo1":-89.0895,"lo2":-89.0444,"dy":0.0017,"dx":0.0017,"nx":28,"ny":28,"refTime":"2024-02-29T09:00:00:Z","depth":"0","parameterNumber":3,"parameterNumberName":"V-component_of_CURRENTS"},"data":[0,0,0,0,0,0,0,0,0,0,0,0,0,0,0,0,0,0,0,0,0,0,0,0,0,0,0,0,0,0,0,0,0,0,0,0,0,0,0,0,0,0,0,0,0,0,0,0,0,0,0,0,0,0,0,0,0,0,-0.0389,-0.0388,0,-0.0299,-0.0298,-0.0297,-0.0236,-0.0236,-0.0235,-0.0235,-0.0113,-0.011,-0.0108,0,0,0,0,0,0,0,0,0,0,0,0,0,-0.0447,-0.0447,-0.0389,-0.0388,-0.0387,-0.03,-0.0298,-0.0297,-0.0236,-0.0236,-0.0235,-0.0235,-0.0114,-0.0111,-0.0107,0,0,0,0,0,0,0,0,0,0,0,0,0,-0.0396,-0.0447,-0.0389,-0.0346,-0.0342,-0.03,-0.0298,-0.0297,-0.0236,-0.0235,-0.0235,-0.0234,-0.0115,-0.0111,-0.0107,-0.0092,0,0,-0.0094,-0.0092,0,0,0,0,0,0,0,0,-0.0399,-0.0394,-0.0354,-0.0349,-0.0344,-0.0279,-0.0274,-0.0227,-0.0236,-0.0276,-0.0235,-0.0234,-0.0166,-0.0158,-0.0142,-0.0087,-0.0081,-0.0093,-0.0091,-0.0089,-0.0088,0,0,0,0,0,0,0,-0.0403,-0.0397,-0.0353,-0.0353,-0.0347,-0.0311,-0.0304,-0.0265,-0.0224,-0.0272,-0.0268,-0.0259,-0.0163,-0.0146,-0.0139,-0.008,-0.0093,-0.009,-0.0087,-0.0085,0.001,0.001,0,0,0,0,0,0,-0.0419,-0.0401,-0.0356,-0.035,-0.0371,-0.0311,-0.0303,-0.03,-0.0225,-0.0214,-0.0259,-0.0256,-0.0154,-0.0144,-0.0134,-0.0099,-0.0089,-0.0085,-0.0082,0.001,0.001,0.001,0,0,0,0,0,0,-0.0421,-0.0416,-0.0359,-0.0374,-0.0364,-0.0311,-0.0308,-0.0298,-0.0278,-0.0216,-0.0204,-0.0249,-0.0153,-0.014,-0.0097,-0.0094,-0.0083,-0.0079,0.001,0.001,0.001,-0.0038,0,0,0,0,0,0,-0.0423,-0.0417,-0.042,-0.0375,-0.0364,-0.0337,-0.0308,-0.0297,-0.0274,-0.0269,-0.0204,-0.0192,-0.0152,-0.0104,-0.0093,-0.0088,-0.0076,0.001,0.001,0.001,-0.0036,-0.0039,-0.0042,0,0,0,0,0,-0.0425,-0.0429,-0.0421,-0.0415,-0.0369,-0.0337,-0.0328,-0.0288,-0.0275,-0.0268,-0.0222,-0.0194,-0.0097,-0.01,-0.0087,-0.0082,0.001,0.001,0.001,-0.0035,-0.0039,-0.0042,0,0,0,0,0,0,-0.045,-0.0422,-0.0412,-0.0406,-0.0377,-0.0327,-0.0317,-0.0293,-0.0252,-0.0247,-0.0191,-0.0176,-0.0138,-0.0106,-0.0111,-0.0055,-0.004,-0.0037,-0.0078,-0.0081,-0.0085,-0.0094,-0.0072,0,0,0,0,0,-0.0461,-0.046,-0.0424,-0.0419,-0.0408,-0.0366,-0.0348,-0.0323,-0.0282,-0.0264,-0.0219,-0.0172,-0.013,-0.0103,-0.0063,-0.0031,0.0,-0.002,-0.0023,-0.0026,-0.0025,0.0019,0.002,0.001,0.001,0.001,0,0,-0.0469,-0.0454,-0.0452,-0.0425,-0.04,-0.0386,-0.0353,-0.0331,-0.0314,-0.0257,-0.0222,-0.0182,-0.0125,-0.0088,-0.0068,-0.0058,-0.0008,-0.0026,-0.0029,-0.0026,0.0019,0.002,0.0021,0.001,0.001,0.001,0,0,-0.0486,-0.0473,-0.0479,-0.046,-0.0431,-0.0403,-0.0401,-0.0356,-0.0331,-0.0296,-0.0251,-0.021,-0.0148,-0.0103,-0.0073,-0.007,-0.0029,-0.0061,-0.0077,-0.0035,-0.0033,-0.0032,0.0003,0.0008,-0.0059,-0.0059,-0.0059,0,-0.0498,-0.0501,-0.0473,-0.0472,-0.046,-0.0415,-0.0414,-0.0381,-0.0327,-0.0306,-0.0292,-0.0198,-0.0153,-0.0099,-0.0097,-0.0076,-0.005,-0.0069,-0.0039,-0.0037,-0.0034,0.0001,0.0007,-0.0061,-0.0061,-0.0061,-0.006,0,-0.0518,-0.052,-0.052,-0.0508,-0.0488,-0.0481,-0.0437,-0.0413,-0.0382,-0.0345,-0.0292,-0.0229,-0.0172,-0.0153,-0.0121,-0.0081,-0.0068,-0.0052,-0.0032,-0.0036,0.0001,0.0009,-0.0064,-0.0064,-0.0063,-0.0062,0,0,-0.0547,-0.0539,-0.054,-0.0546,-0.051,-0.0499,-0.047,-0.0431,-0.0416,-0.0357,-0.0326,-0.0251,-0.0218,-0.0182,-0.0136,-0.0095,-0.0057,-0.0071,-0.0068,-0.0041,0.0032,0.0073,0.0086,-0.0038,-0.0037,-0.0036,0.0048,0,-0.0574,-0.0595,-0.0572,-0.0581,-0.0589,-0.0542,-0.0521,-0.0478,-0.0433,-0.0391,-0.0314,-0.0269,-0.0227,-0.0204,-0.0155,-0.008,-0.004,-0.0082,0.0036,0.0039,0.0074,0.0095,0.0119,0.02,0.0056,0.0057,0.0058,0,-0.0602,-0.0615,-0.0637,-0.0633,-0.063,-0.0622,-0.0587,-0.0561,-0.0486,-0.0452,-0.0385,-0.0323,-0.0242,-0.0216,-0.0085,-0.0115,-0.0049,0.0008,0.0012,0.0075,0.0095,0.0184,0.0219,0.0382,0.007,0.0069,0.0068,0,-0.0651,-0.0659,-0.0683,-0.0681,-0.0665,-0.0659,-0.0642,-0.0583,-0.0568,-0.0488,-0.0466,-0.0357,-0.0306,-0.0203,-0.0073,-0.0082,0.0068,0.0071,0.0172,0.0175,0.0233,0.0239,0.0438,0.0155,0.0155,0.0155,0.0155,0,-0.0693,-0.0711,-0.0712,-0.0727,-0.0755,-0.0715,-0.0722,-0.0687,-0.0635,-0.0623,-0.0505,-0.0465,-0.0303,-0.019,-0.008,0.0079,0.0067,0.0178,0.0206,0.0216,0.022,0.0393,0.047,0.0158,0.0157,0.0157,0.0156,0,-0.0741,-0.074,-0.0775,-0.0778,-0.0783,-0.0802,-0.0794,-0.08,-0.0733,-0.0712,-0.0689,-0.0542,-0.0391,-0.0219,-0.0042,0.0068,0.0311,0.0268,0.0267,0.0295,0.0532,0.0604,0.0836,0.0872,0.039,0.0391,0.0393,0,-0.0769,-0.0793,-0.0829,-0.0865,-0.0871,-0.0893,-0.0915,-0.0864,-0.0863,-0.0762,-0.0756,-0.0594,-0.0483,-0.018,0.0053,0.0276,0.0385,0.0423,0.0414,0.0566,0.0667,0.0719,0.0734,0.0468,0.047,0.0471,0.0472,0,-0.0822,-0.0834,-0.0868,-0.0954,-0.0994,-0.1034,-0.1049,-0.1064,-0.1,-0.0969,-0.0891,-0.0787,-0.045,-0.0152,0.0177,0.0303,0.0546,0.046,0.0627,0.0761,0.0823,0.0863,0.0384,0.0486,0.0485,0.0484,0.0483,0.0482,-0.086,-0.0907,-0.0965,-0.1047,-0.1105,-0.1171,-0.1218,-0.1219,-0.1228,-0.1181,-0.1021,-0.0841,-0.0317,0.0162,0.0326,0.0723,0.0671,0.0818,0.0895,0.0935,0.0976,0.0526,0.0654,0.0654,0.0653,0.0653,0.0653,0,-0.0909,-0.0971,-0.1059,-0.1157,-0.1254,-0.1251,-0.1312,-0.1362,-0.14,-0.1288,-0.1191,-0.0606,-0.0101,0.0379,0.099,0.1173,0.1168,0.1248,0.1334,0.1324,0.0943,0.0953,0.1141,0.1141,0.1141,0.114,0.114,0.114,-0.0939,-0.1035,-0.1093,-0.1273,-0.1347,-0.1467,-0.1513,-0.1568,-0.1524,-0.1359,-0.105,-0.0787,0.007,0.1167,0.1692,0.1668,0.1783,0.1768,0.1818,0.1581,0.1546,0.1513,0.1542,0.1851,0.1852,0.2148,0.2152,0.2154]}],[{"header":{"parameterUnit":"m.s-1","parameterCategory":2,"la1":30.2991,"la2":30.254,"lo1":-89.0895,"lo2":-89.0444,"dy":0.0017,"dx":0.0017,"nx":28,"ny":28,"refTime":"2024-02-29T09:00:00:Z","depth":"2","parameterNumber":2,"parameterNumberName":"U-component_of_CURRENTS"},"data":[0,0,0,0,0,0,0,0,0,0,0,0,0,0,0,0,0,0,0,0,0,0,0,0,0,0,0,0,0,0,0,0,0,0,0,0,0,0,0,0,0,0,0,0,0,0,0,0,0,0,0,0,0,0,0,0,0,0,-0.2045,-0.2046,0,-0.2072,-0.2072,-0.2072,-0.2075,-0.2075,-0.2075,-0.2074,-0.2079,-0.2079,-0.2079,0,0,0,0,0,0,0,0,0,0,0,0,0,-0.1992,-0.1993,-0.2045,-0.2046,-0.2046,-0.2072,-0.2072,-0.2072,-0.2075,-0.2075,-0.2075,-0.2074,-0.2079,-0.2079,-0.2079,0,0,0,0,0,0,0,0,0,0,0,0,0,-0.2015,-0.1993,-0.2045,-0.2052,-0.2053,-0.2072,-0.2072,-0.2073,-0.2075,-0.2075,-0.2075,-0.2074,-0.2079,-0.2079,-0.2079,-0.2085,0,0,-0.208,-0.208,0,0,0,0,0,0,0,0,-0.2014,-0.2017,-0.205,-0.2051,-0.2053,-0.2072,-0.2055,-0.2076,-0.2075,-0.2064,-0.2074,-0.2074,-0.2076,-0.2076,-0.2079,-0.2085,-0.2085,-0.208,-0.2081,-0.2081,-0.2081,0,0,0,0,0,0,0,-0.2012,-0.2016,-0.2054,-0.2051,-0.2052,-0.2053,-0.2055,-0.2059,-0.2069,-0.2065,-0.2066,-0.2072,-0.2076,-0.2079,-0.2079,-0.2085,-0.208,-0.2081,-0.2081,-0.2081,-0.2098,-0.2098,0,0,0,0,0,0,-0.2013,-0.2014,-0.2053,-0.2055,-0.2035,-0.2054,-0.2057,-0.2064,-0.2069,-0.2071,-0.2072,-0.2072,-0.2079,-0.2079,-0.208,-0.2093,-0.2081,-0.2081,-0.2081,-0.2098,-0.2098,-0.2098,0,0,0,0,0,0,-0.2012,-0.2017,-0.2052,-0.2037,-0.2041,-0.2055,-0.2063,-0.2065,-0.2071,-0.2075,-0.2076,-0.2077,-0.2078,-0.2079,-0.2087,-0.2092,-0.2081,-0.2081,-0.2097,-0.2098,-0.2098,-0.2114,0,0,0,0,0,0,-0.201,-0.2016,-0.202,-0.2037,-0.2042,-0.2068,-0.2064,-0.2066,-0.2076,-0.2076,-0.2079,-0.2079,-0.2078,-0.2086,-0.2087,-0.2093,-0.2082,-0.2097,-0.2098,-0.2098,-0.2114,-0.2115,-0.2117,0,0,0,0,0,-0.2008,-0.2018,-0.202,-0.2025,-0.2048,-0.2068,-0.2071,-0.2079,-0.2076,-0.2082,-0.2083,-0.2079,-0.209,-0.2087,-0.2088,-0.2094,-0.2097,-0.2097,-0.2098,-0.2113,-0.2115,-0.2117,0,0,0,0,0,0,-0.1997,-0.2019,-0.2022,-0.2037,-0.2053,-0.2069,-0.2076,-0.2081,-0.2087,-0.2085,-0.2085,-0.2085,-0.2094,-0.2092,-0.2089,-0.2099,-0.2092,-0.2093,-0.2103,-0.2105,-0.2106,-0.2118,-0.2082,0,0,0,0,0,-0.1997,-0.2007,-0.2029,-0.2039,-0.2048,-0.2061,-0.207,-0.2077,-0.2087,-0.2089,-0.2091,-0.2093,-0.2097,-0.2099,-0.2102,-0.211,-0.2113,-0.2113,-0.2114,-0.2116,-0.2126,-0.2127,-0.213,-0.21,-0.21,-0.21,0,0,-0.1994,-0.2008,-0.2013,-0.2037,-0.2048,-0.2068,-0.2066,-0.2082,-0.2097,-0.2088,-0.2102,-0.2099,-0.21,-0.2108,-0.2112,-0.2108,-0.2128,-0.2117,-0.2118,-0.2127,-0.2128,-0.2131,-0.2134,-0.2101,-0.2101,-0.21,0,0,-0.1998,-0.2008,-0.2019,-0.2036,-0.2059,-0.2071,-0.2077,-0.2096,-0.2102,-0.2115,-0.2112,-0.2115,-0.212,-0.2124,-0.2126,-0.2139,-0.2136,-0.2135,-0.2154,-0.2155,-0.2157,-0.216,-0.2175,-0.2179,-0.2136,-0.2136,-0.2136,0,-0.1994,-0.2013,-0.2025,-0.2046,-0.2062,-0.2074,-0.2094,-0.2106,-0.2123,-0.213,-0.2121,-0.2132,-0.213,-0.2146,-0.2149,-0.2144,-0.2147,-0.2146,-0.2157,-0.216,-0.2162,-0.2177,-0.2181,-0.2136,-0.2136,-0.2136,-0.2136,0,-0.2009,-0.2028,-0.2037,-0.2066,-0.2085,-0.2104,-0.2127,-0.214,-0.2144,-0.2153,-0.2165,-0.2161,-0.2168,-0.2165,-0.2162,-0.2176,-0.2175,-0.2159,-0.2153,-0.2166,-0.2181,-0.2184,-0.2138,-0.2137,-0.2137,-0.2137,0,0,-0.1992,-0.2039,-0.2041,-0.2059,-0.2098,-0.2113,-0.2142,-0.217,-0.2191,-0.2192,-0.2214,-0.2212,-0.2205,-0.2207,-0.22,-0.2202,-0.2219,-0.2188,-0.2188,-0.2206,-0.2232,-0.2274,-0.2281,-0.22,-0.22,-0.2201,-0.2239,0,-0.1999,-0.2034,-0.2061,-0.2094,-0.2115,-0.2143,-0.217,-0.2196,-0.2216,-0.224,-0.2234,-0.2248,-0.2223,-0.2225,-0.2223,-0.2224,-0.2228,-0.2211,-0.2216,-0.2217,-0.2253,-0.2287,-0.2075,-0.2095,-0.2243,-0.2243,-0.2244,0,-0.2004,-0.2028,-0.206,-0.2109,-0.2121,-0.2143,-0.219,-0.2218,-0.2258,-0.2273,-0.2285,-0.2287,-0.2297,-0.2268,-0.2273,-0.2262,-0.225,-0.2246,-0.2246,-0.2284,-0.2265,-0.2105,-0.2096,-0.225,-0.2249,-0.2249,-0.2249,0,-0.1974,-0.2026,-0.2049,-0.2066,-0.2124,-0.2142,-0.217,-0.2219,-0.2255,-0.2292,-0.2325,-0.2326,-0.234,-0.232,-0.2319,-0.2291,-0.2333,-0.2289,-0.2317,-0.232,-0.2143,-0.213,-0.2291,-0.2291,-0.2291,-0.229,-0.229,0,-0.1968,-0.1985,-0.2034,-0.2046,-0.2078,-0.2122,-0.2166,-0.2199,-0.2263,-0.2313,-0.2332,-0.2376,-0.2352,-0.2377,-0.2348,-0.2366,-0.2354,-0.234,-0.2338,-0.2145,-0.2133,-0.2265,-0.2261,-0.2292,-0.2292,-0.2291,-0.2291,0,-0.1929,-0.1964,-0.1992,-0.2046,-0.2065,-0.2082,-0.2163,-0.2196,-0.2264,-0.2334,-0.2348,-0.2419,-0.2452,-0.2449,-0.2442,-0.2421,-0.242,-0.2424,-0.222,-0.2195,-0.2393,-0.239,-0.2449,-0.2451,-0.2453,-0.2454,-0.2455,0,-0.191,-0.1918,-0.1976,-0.1992,-0.2015,-0.2058,-0.209,-0.2174,-0.2225,-0.2363,-0.2394,-0.2471,-0.2531,-0.257,-0.2504,-0.248,-0.2487,-0.2296,-0.221,-0.242,-0.2412,-0.2406,-0.24,-0.1968,-0.1966,-0.1963,-0.1961,0,-0.1862,-0.1881,-0.1899,-0.1943,-0.1975,-0.2026,-0.2085,-0.2138,-0.2248,-0.2336,-0.2467,-0.2539,-0.2575,-0.2478,-0.2461,-0.2397,-0.2283,-0.2254,-0.2499,-0.1993,-0.1978,-0.1967,-0.1975,-0.194,-0.1942,-0.1943,-0.1945,-0.1945,-0.181,-0.1812,-0.184,-0.1876,-0.192,-0.1979,-0.1994,-0.2089,-0.2189,-0.2286,-0.2431,-0.2472,-0.2428,-0.2327,-0.2224,-0.211,-0.2251,-0.2112,-0.2113,-0.2118,-0.2087,-0.208,-0.2054,-0.2056,-0.2059,-0.2061,-0.2063,0,-0.1728,-0.1747,-0.1774,-0.1812,-0.1821,-0.1884,-0.197,-0.1953,-0.2034,-0.2166,-0.2267,-0.2098,-0.2079,-0.2027,-0.184,-0.1826,-0.172,-0.1731,-0.1566,-0.1591,-0.1612,-0.1548,-0.1375,-0.1373,-0.1371,-0.1369,0,0,-0.1682,-0.1667,-0.1687,-0.1684,-0.1716,-0.1697,-0.1721,-0.1731,-0.1782,-0.1806,-0.1845,-0.2036,-0.2047,-0.1736,-0.1635,-0.1488,-0.1518,-0.1413,-0.1966,-0.1799,-0.1818,-0.1839,-0.1772,0,0,0,0,0]},{"header":{"parameterUnit":"m.s-1","parameterCategory":2,"la1":30.2991,"la2":30.254,"lo1":-89.0895,"lo2":-89.0444,"dy":0.0017,"dx":0.0017,"nx":28,"ny":28,"refTime":"2024-02-29T09:00:00:Z","depth":"2","parameterNumber":3,"parameterNumberName":"V-component_of_CURRENTS"},"data":[0,0,0,0,0,0,0,0,0,0,0,0,0,0,0,0,0,0,0,0,0,0,0,0,0,0,0,0,0,0,0,0,0,0,0,0,0,0,0,0,0,0,0,0,0,0,0,0,0,0,0,0,0,0,0,0,0,0,-0.0336,-0.0335,0,-0.0246,-0.0245,-0.0244,-0.0184,-0.0183,-0.0183,-0.0183,-0.0062,-0.0059,-0.0056,0,0,0,0,0,0,0,0,0,0,0,0,0,-0.0393,-0.0393,-0.0336,-0.0335,-0.0334,-0.0247,-0.0245,-0.0244,-0.0184,-0.0183,-0.0183,-0.0183,-0.0063,-0.0059,-0.0056,0,0,0,0,0,0,0,0,0,0,0,0,0,-0.0342,-0.0393,-0.0336,-0.0294,-0.0289,-0.0247,-0.0245,-0.0244,-0.0184,-0.0183,-0.0183,-0.0182,-0.0064,-0.006,-0.0055,-0.004,0,0,-0.0042,-0.004,0,0,0,0,0,0,0,0,-0.0345,-0.034,-0.0301,-0.0296,-0.0291,-0.0226,-0.0221,-0.0174,-0.0184,-0.0223,-0.0183,-0.0182,-0.0115,-0.0106,-0.009,-0.0034,-0.0029,-0.0042,-0.0039,-0.0037,-0.0036,0,0,0,0,0,0,0,-0.0349,-0.0343,-0.03,-0.03,-0.0294,-0.0258,-0.0251,-0.0212,-0.0172,-0.022,-0.0215,-0.0207,-0.0112,-0.0094,-0.0087,-0.0027,-0.0042,-0.0038,-0.0035,-0.0034,0.0062,0.0062,0,0,0,0,0,0,-0.0365,-0.0347,-0.0303,-0.0297,-0.0318,-0.0258,-0.025,-0.0247,-0.0173,-0.0162,-0.0207,-0.0204,-0.0102,-0.0092,-0.0082,-0.0048,-0.0037,-0.0033,-0.0031,0.0062,0.0062,0.0062,0,0,0,0,0,0,-0.0367,-0.0362,-0.0306,-0.032,-0.031,-0.0258,-0.0255,-0.0246,-0.0226,-0.0164,-0.0152,-0.0198,-0.0101,-0.0088,-0.0045,-0.0044,-0.0031,-0.0027,0.0062,0.0062,0.0062,0.0012,0,0,0,0,0,0,-0.0369,-0.0364,-0.0366,-0.0321,-0.031,-0.0284,-0.0256,-0.0244,-0.0222,-0.0217,-0.0152,-0.014,-0.01,-0.0052,-0.0041,-0.0037,-0.0024,0.0062,0.0062,0.0062,0.0014,0.001,0.0007,0,0,0,0,0,-0.0371,-0.0376,-0.0367,-0.0361,-0.0316,-0.0285,-0.0276,-0.0236,-0.0223,-0.0216,-0.0171,-0.0142,-0.0045,-0.0049,-0.0036,-0.0031,0.0062,0.0062,0.0062,0.0015,0.0011,0.0008,0,0,0,0,0,0,-0.0397,-0.0369,-0.0358,-0.0353,-0.0324,-0.0275,-0.0264,-0.0241,-0.0201,-0.0196,-0.0139,-0.0124,-0.0087,-0.0054,-0.006,-0.0004,0.0012,0.0014,-0.0028,-0.0031,-0.0035,-0.0044,-0.002,0,0,0,0,0,-0.0408,-0.0407,-0.0371,-0.0367,-0.0356,-0.0314,-0.0296,-0.0272,-0.0231,-0.0213,-0.0168,-0.0121,-0.0079,-0.0052,-0.0012,0.002,0.0051,0.0031,0.0027,0.0024,0.0025,0.0069,0.007,0.0061,0.0061,0.0061,0,0,-0.0416,-0.0401,-0.0399,-0.0373,-0.0348,-0.0335,-0.0301,-0.028,-0.0263,-0.0206,-0.0172,-0.0131,-0.0074,-0.0037,-0.0018,-0.0008,0.0042,0.0024,0.0021,0.0024,0.0069,0.007,0.0071,0.0061,0.0061,0.0061,0,0,-0.0434,-0.0422,-0.0427,-0.0409,-0.038,-0.0352,-0.035,-0.0306,-0.0281,-0.0247,-0.0202,-0.0161,-0.0098,-0.0054,-0.0024,-0.0021,0.002,-0.0012,-0.0029,0.0013,0.0014,0.0016,0.0049,0.0054,-0.001,-0.001,-0.001,0,-0.0446,-0.045,-0.0422,-0.0421,-0.0409,-0.0365,-0.0364,-0.0331,-0.0278,-0.0257,-0.0243,-0.0149,-0.0104,-0.005,-0.0049,-0.0027,-0.0001,-0.002,0.0009,0.0011,0.0013,0.0048,0.0054,-0.0012,-0.0012,-0.0012,-0.0012,0,-0.0467,-0.0469,-0.0471,-0.0458,-0.0439,-0.0432,-0.0388,-0.0365,-0.0334,-0.0297,-0.0244,-0.0181,-0.0125,-0.0106,-0.0074,-0.0035,-0.0021,-0.0005,0.0016,0.0011,0.0048,0.0055,-0.0016,-0.0015,-0.0014,-0.0014,0,0,-0.0498,-0.049,-0.049,-0.0496,-0.0461,-0.045,-0.0422,-0.0383,-0.0368,-0.031,-0.0279,-0.0205,-0.0172,-0.0136,-0.009,-0.005,-0.0014,-0.0026,-0.0022,0.0003,0.0074,0.0114,0.0126,0.0006,0.0007,0.0008,0.0091,0,-0.0525,-0.0546,-0.0523,-0.0532,-0.054,-0.0493,-0.0473,-0.043,-0.0386,-0.0345,-0.0268,-0.0224,-0.0182,-0.0159,-0.0111,-0.0036,0.0004,-0.0038,0.008,0.0083,0.0117,0.0136,0.0103,0.0178,0.0098,0.0099,0.01,0,-0.0553,-0.0566,-0.0588,-0.0584,-0.0581,-0.0573,-0.0539,-0.0513,-0.0439,-0.0405,-0.034,-0.0278,-0.0198,-0.0172,-0.0042,-0.0072,-0.0007,0.005,0.0055,0.0116,0.0137,0.0173,0.0194,0.0113,0.0112,0.0111,0.011,0,-0.0602,-0.0609,-0.0634,-0.0632,-0.0615,-0.061,-0.0594,-0.0535,-0.052,-0.0442,-0.042,-0.0313,-0.0263,-0.016,-0.0031,-0.004,0.0108,0.0112,0.0211,0.0214,0.0224,0.0226,0.0195,0.0195,0.0195,0.0195,0.0195,0,-0.0643,-0.0661,-0.0663,-0.0678,-0.0705,-0.0665,-0.0673,-0.0638,-0.0587,-0.0576,-0.0459,-0.0419,-0.0259,-0.0148,-0.0039,0.0118,0.0107,0.0217,0.0245,0.0205,0.0205,0.0178,0.0175,0.0198,0.0197,0.0197,0.0196,0,-0.0691,-0.0691,-0.0725,-0.0728,-0.0733,-0.0752,-0.0744,-0.075,-0.0684,-0.0664,-0.0641,-0.0496,-0.0347,-0.0177,-0.0001,0.0107,0.0251,0.0304,0.0248,0.0269,0.0326,0.0319,0.042,0.0422,0.0424,0.0425,0.0427,0,-0.0718,-0.0742,-0.0778,-0.0814,-0.082,-0.0842,-0.0863,-0.0814,-0.0812,-0.0713,-0.0707,-0.0548,-0.0437,-0.0139,0.0082,0.03,0.0295,0.0397,0.0381,0.0334,0.0352,0.0342,0.0333,0.0368,0.0368,0.0369,0.0369,0,-0.0771,-0.0783,-0.0817,-0.0902,-0.0941,-0.098,-0.0995,-0.101,-0.0946,-0.0913,-0.0837,-0.0734,-0.0413,-0.0152,0.0167,0.0285,0.0364,0.0417,0.0394,0.0318,0.0293,0.0307,0.0299,0.0375,0.0374,0.0374,0.0374,0.0373,-0.0809,-0.0855,-0.0913,-0.0993,-0.1051,-0.1116,-0.1161,-0.1151,-0.1156,-0.1092,-0.0955,-0.0777,-0.0457,-0.0018,0.0225,0.0445,0.0427,0.0478,0.0472,0.0467,0.0449,0.0429,0.0532,0.0532,0.0533,0.0533,0.0533,0,-0.0851,-0.0919,-0.1005,-0.1102,-0.1188,-0.1195,-0.1254,-0.1269,-0.1289,-0.1185,-0.1082,-0.0735,-0.0379,-0.0053,0.0308,0.0531,0.0503,0.0557,0.0484,0.0477,0.0472,0.0451,0.0536,0.0537,0.0538,0.0538,0,0,-0.0878,-0.097,-0.1026,-0.1198,-0.1278,-0.1377,-0.1421,-0.142,-0.1361,-0.128,-0.1131,-0.0855,-0.0417,-0.0148,0.0153,0.0345,0.0332,0.035,0.032,0.0188,0.0179,0.04,0.0359,0,0,0,0,0]}],[{"header":{"parameterUnit":"m.s-1","parameterCategory":2,"la1":30.2991,"la2":30.254,"lo1":-89.0895,"lo2":-89.0444,"dy":0.0017,"dx":0.0017,"nx":28,"ny":28,"refTime":"2024-02-29T09:00:00:Z","depth":"4","parameterNumber":2,"parameterNumberName":"U-component_of_CURRENTS"},"data":[0,0,0,0,0,0,0,0,0,0,0,0,0,0,0,0,0,0,0,0,0,0,0,0,0,0,0,0,0,0,0,0,0,0,0,0,0,0,0,0,0,0,0,0,0,0,0,0,0,0,0,0,0,0,0,0,0,0,-0.1303,-0.1303,0,-0.1348,-0.1349,-0.1349,-0.1387,-0.1388,-0.1388,-0.1389,-0.1445,-0.1446,-0.1447,0,0,0,0,0,0,0,0,0,0,0,0,0,-0.1238,-0.1239,-0.1303,-0.1304,-0.1304,-0.1348,-0.1349,-0.1349,-0.1387,-0.1388,-0.1389,-0.1389,-0.1444,-0.1446,-0.1447,0,0,0,0,0,0,0,0,0,0,0,0,0,-0.1273,-0.124,-0.1303,-0.1329,-0.1332,-0.1348,-0.1349,-0.1349,-0.1387,-0.1388,-0.1389,-0.1389,-0.1444,-0.1446,-0.1447,-0.1442,0,0,-0.1452,-0.1453,0,0,0,0,0,0,0,0,-0.1271,-0.1275,-0.1325,-0.1327,-0.133,-0.1363,-0.1346,-0.1381,-0.1387,-0.1365,-0.1389,-0.139,-0.1418,-0.1422,-0.1428,-0.1445,-0.1447,-0.1452,-0.1453,-0.1454,-0.1454,0,0,0,0,0,0,0,-0.1268,-0.1273,-0.132,-0.1325,-0.1329,-0.1335,-0.134,-0.1353,-0.1387,-0.1367,-0.137,-0.1376,-0.142,-0.1426,-0.143,-0.1448,-0.1452,-0.1453,-0.1454,-0.1455,-0.1527,-0.1528,0,0,0,0,0,0,-0.1264,-0.1271,-0.1319,-0.1322,-0.1302,-0.1335,-0.1342,-0.1352,-0.1387,-0.1393,-0.1376,-0.1378,-0.1423,-0.1428,-0.1432,-0.1489,-0.1454,-0.1455,-0.1456,-0.1526,-0.1527,-0.1528,0,0,0,0,0,0,-0.1262,-0.1268,-0.1317,-0.1297,-0.1304,-0.1336,-0.1347,-0.1352,-0.1384,-0.1393,-0.1399,-0.1404,-0.1424,-0.143,-0.1466,-0.1489,-0.1456,-0.1457,-0.1525,-0.1526,-0.1528,-0.1565,0,0,0,0,0,0,-0.126,-0.1267,-0.1284,-0.1297,-0.1305,-0.1343,-0.1346,-0.1352,-0.1385,-0.1389,-0.1419,-0.1424,-0.1425,-0.1463,-0.1467,-0.1491,-0.1458,-0.1524,-0.1526,-0.1527,-0.1562,-0.1567,-0.1572,0,0,0,0,0,-0.1258,-0.1274,-0.1284,-0.1291,-0.1324,-0.1344,-0.1349,-0.1373,-0.1386,-0.1403,-0.1425,-0.1424,-0.1478,-0.1466,-0.147,-0.1494,-0.1523,-0.1525,-0.1527,-0.156,-0.1566,-0.1572,0,0,0,0,0,0,-0.1255,-0.128,-0.1291,-0.1315,-0.1337,-0.1352,-0.1372,-0.1387,-0.1417,-0.1429,-0.1437,-0.1443,-0.1482,-0.1483,-0.147,-0.152,-0.15,-0.1503,-0.1524,-0.1529,-0.1534,-0.1539,-0.146,0,0,0,0,0,-0.1261,-0.1282,-0.1303,-0.1325,-0.1337,-0.1359,-0.1375,-0.1392,-0.1415,-0.143,-0.1451,-0.1473,-0.149,-0.1507,-0.1521,-0.1551,-0.1548,-0.1569,-0.1574,-0.1578,-0.1585,-0.1593,-0.1599,-0.1536,-0.1536,-0.1536,0,0,-0.1265,-0.1283,-0.1296,-0.1326,-0.1345,-0.137,-0.1372,-0.1404,-0.1431,-0.143,-0.1482,-0.1492,-0.1501,-0.1534,-0.1551,-0.1542,-0.1596,-0.158,-0.1584,-0.1589,-0.1596,-0.1602,-0.1608,-0.1537,-0.1537,-0.1537,0,0,-0.1277,-0.1302,-0.1322,-0.1344,-0.1378,-0.1392,-0.1407,-0.1438,-0.1463,-0.1502,-0.1509,-0.1537,-0.1568,-0.1579,-0.1587,-0.1626,-0.1619,-0.1633,-0.1664,-0.1673,-0.1678,-0.1682,-0.1692,-0.1697,-0.1637,-0.1637,-0.1637,0,-0.1283,-0.1312,-0.1332,-0.1357,-0.138,-0.1406,-0.1434,-0.146,-0.1501,-0.1522,-0.1527,-0.1577,-0.1588,-0.1621,-0.1637,-0.1638,-0.164,-0.1641,-0.1678,-0.1683,-0.1686,-0.1696,-0.1701,-0.1639,-0.1639,-0.1638,-0.1638,0,-0.1302,-0.1337,-0.1352,-0.1394,-0.1421,-0.1451,-0.1485,-0.1521,-0.1551,-0.1572,-0.162,-0.1633,-0.1661,-0.1669,-0.1668,-0.1705,-0.1697,-0.168,-0.1662,-0.1695,-0.1703,-0.1708,-0.1642,-0.1641,-0.164,-0.164,0,0,-0.128,-0.1353,-0.136,-0.139,-0.1446,-0.1466,-0.1519,-0.1564,-0.1603,-0.1639,-0.1682,-0.1712,-0.1719,-0.1728,-0.173,-0.1743,-0.1776,-0.173,-0.173,-0.1738,-0.18,-0.1717,-0.1714,-0.1765,-0.1766,-0.1766,-0.1795,0,-0.129,-0.1344,-0.138,-0.1437,-0.1466,-0.1513,-0.1557,-0.1604,-0.1647,-0.1696,-0.1715,-0.1753,-0.1741,-0.1759,-0.1771,-0.1777,-0.179,-0.177,-0.1769,-0.1769,-0.1689,-0.1716,-0.1769,-0.1799,-0.18,-0.1801,-0.1801,0,-0.1289,-0.1329,-0.1386,-0.1461,-0.1479,-0.152,-0.1595,-0.164,-0.1709,-0.1741,-0.178,-0.1798,-0.1833,-0.1812,-0.1836,-0.1824,-0.1819,-0.1817,-0.1818,-0.173,-0.1694,-0.1758,-0.1809,-0.1809,-0.1808,-0.1807,-0.1807,0,-0.1247,-0.1329,-0.1377,-0.1403,-0.1491,-0.1531,-0.1579,-0.1654,-0.1702,-0.1773,-0.1814,-0.1845,-0.1874,-0.1871,-0.1876,-0.1858,-0.1897,-0.1866,-0.1787,-0.1782,-0.1831,-0.1826,-0.188,-0.188,-0.188,-0.188,-0.188,0,-0.1228,-0.1268,-0.1367,-0.1392,-0.1453,-0.1519,-0.159,-0.1643,-0.1728,-0.1779,-0.1833,-0.1871,-0.1892,-0.1917,-0.1899,-0.1862,-0.1914,-0.1799,-0.1783,-0.1847,-0.1843,-0.1835,-0.1829,-0.1881,-0.1881,-0.1881,-0.1881,0,-0.117,-0.1238,-0.1297,-0.1399,-0.1437,-0.1478,-0.1594,-0.1638,-0.1728,-0.1799,-0.1823,-0.1903,-0.1924,-0.1943,-0.1949,-0.1888,-0.1863,-0.1838,-0.1924,-0.1912,-0.1735,-0.1731,-0.1737,-0.1734,-0.1732,-0.173,-0.1729,0,-0.1144,-0.1171,-0.1289,-0.1327,-0.1379,-0.1459,-0.1509,-0.1619,-0.1666,-0.1802,-0.182,-0.1895,-0.1927,-0.1875,-0.1896,-0.186,-0.1836,-0.1813,-0.1752,-0.1736,-0.172,-0.172,-0.1719,-0.1725,-0.1724,-0.1724,-0.1723,0,-0.1088,-0.114,-0.1187,-0.127,-0.1335,-0.1402,-0.1485,-0.1516,-0.1635,-0.1735,-0.1777,-0.1792,-0.1824,-0.1814,-0.1809,-0.1778,-0.1817,-0.1788,-0.1791,-0.1734,-0.1721,-0.1708,-0.171,-0.1715,-0.1716,-0.1717,-0.1718,0,-0.1042,-0.106,-0.1132,-0.1191,-0.1271,-0.1317,-0.1379,-0.1439,-0.1504,-0.1652,-0.1662,-0.1741,-0.1815,-0.1774,-0.1768,-0.1735,-0.1693,-0.1625,-0.1636,-0.1645,-0.1598,-0.1567,-0.1505,0,0,0,0,0,-0.0988,-0.0999,-0.1048,-0.1108,-0.1182,-0.1229,-0.1346,-0.1409,-0.1532,-0.1525,-0.1592,-0.1615,-0.1619,-0.166,-0.16,-0.1708,-0.169,-0.1632,-0.1616,-0.1671,-0.168,-0.1632,0,0,0,0,0,0,-0.0951,-0.0991,-0.1013,-0.1024,-0.1043,-0.1118,-0.1187,-0.1276,-0.1285,-0.1412,-0.1421,-0.1512,-0.1532,-0.1618,-0.1561,-0.157,-0.1529,-0.1682,-0.1678,-0.1666,-0.1674,-0.1682,-0.1635,0,0,0,0,0]},{"header":{"parameterUnit":"m.s-1","parameterCategory":2,"la1":30.2991,"la2":30.254,"lo1":-89.0895,"lo2":-89.0444,"dy":0.0017,"dx":0.0017,"nx":28,"ny":28,"refTime":"2024-02-29T09:00:00:Z","depth":"4","parameterNumber":3,"parameterNumberName":"V-component_of_CURRENTS"},"data":[0,0,0,0,0,0,0,0,0,0,0,0,0,0,0,0,0,0,0,0,0,0,0,0,0,0,0,0,0,0,0,0,0,0,0,0,0,0,0,0,0,0,0,0,0,0,0,0,0,0,0,0,0,0,0,0,0,0,-0.0115,-0.0115,0,-0.0054,-0.0053,-0.0052,-0.0009,-0.0008,-0.0008,-0.0008,0.0087,0.0089,0.0091,0,0,0,0,0,0,0,0,0,0,0,0,0,-0.0138,-0.0139,-0.0115,-0.0115,-0.0114,-0.0054,-0.0053,-0.0052,-0.0009,-0.0008,-0.0008,-0.0008,0.0086,0.0089,0.0092,0,0,0,0,0,0,0,0,0,0,0,0,0,-0.0107,-0.0139,-0.0116,-0.0086,-0.0082,-0.0054,-0.0053,-0.0052,-0.0009,-0.0008,-0.0008,-0.0008,0.0085,0.0089,0.0092,0.0104,0,0,0.0102,0.0104,0,0,0,0,0,0,0,0,-0.0109,-0.0107,-0.0091,-0.0088,-0.0084,-0.0039,-0.0026,0.0002,-0.0009,-0.0036,-0.0008,-0.0007,0.0047,0.0054,0.0065,0.0108,0.0112,0.0103,0.0105,0.0106,0.0107,0,0,0,0,0,0,0,-0.0112,-0.0109,-0.009,-0.009,-0.0086,-0.0055,-0.0051,-0.0021,0.0003,-0.0034,-0.0031,-0.0025,0.005,0.0061,0.0067,0.0114,0.0102,0.0105,0.0108,0.0109,0.0181,0.0181,0,0,0,0,0,0,-0.0124,-0.0111,-0.0092,-0.0089,-0.0096,-0.0056,-0.0051,-0.0053,0.0002,0.0011,-0.0025,-0.0023,0.0055,0.0063,0.0071,0.0089,0.0106,0.0109,0.0111,0.0181,0.0181,0.0181,0,0,0,0,0,0,-0.0125,-0.0123,-0.0095,-0.0098,-0.0093,-0.0056,-0.0059,-0.0052,-0.0041,0.0008,0.0018,-0.0021,0.0056,0.0066,0.0097,0.0093,0.0111,0.0114,0.0181,0.0181,0.0181,0.0125,0,0,0,0,0,0,-0.0126,-0.0124,-0.013,-0.01,-0.0093,-0.0084,-0.0059,-0.0051,-0.0038,-0.0034,0.0016,0.0025,0.0057,0.0092,0.0101,0.0098,0.0116,0.0182,0.0181,0.0181,0.0127,0.0123,0.0119,0,0,0,0,0,-0.0127,-0.0138,-0.0131,-0.0128,-0.0102,-0.0085,-0.0079,-0.005,-0.0038,-0.0037,-0.0001,0.0023,0.0097,0.0095,0.0105,0.0103,0.0182,0.0181,0.0181,0.0129,0.0124,0.0119,0,0,0,0,0,0,-0.0148,-0.0133,-0.0125,-0.013,-0.0112,-0.0078,-0.0074,-0.0055,-0.0027,-0.0023,0.0024,0.0035,0.0061,0.0089,0.0086,0.0124,0.0143,0.0144,0.0099,0.0095,0.0091,0.0082,0.0119,0,0,0,0,0,-0.0157,-0.0164,-0.014,-0.0145,-0.0139,-0.0108,-0.0098,-0.008,-0.0051,-0.0038,-0.0004,0.0034,0.0067,0.0086,0.0118,0.0139,0.0168,0.0145,0.0141,0.0138,0.0138,0.0173,0.0173,0.018,0.018,0.018,0,0,-0.0166,-0.0159,-0.0162,-0.015,-0.0134,-0.013,-0.0101,-0.0091,-0.0084,-0.0032,-0.0013,0.0022,0.007,0.0093,0.0107,0.0117,0.015,0.0137,0.0134,0.0136,0.0173,0.0172,0.0172,0.018,0.018,0.018,0,0,-0.0188,-0.0183,-0.0195,-0.0186,-0.0169,-0.0149,-0.015,-0.0121,-0.0104,-0.0083,-0.0043,-0.0012,0.0035,0.007,0.0094,0.009,0.0127,0.0098,0.0074,0.0108,0.0108,0.0108,0.0137,0.014,0.0097,0.0097,0.0097,0,-0.0199,-0.0211,-0.0194,-0.0201,-0.0196,-0.0163,-0.0169,-0.0148,-0.0111,-0.0098,-0.0085,-0.0012,0.0025,0.0063,0.0062,0.0081,0.0104,0.0085,0.0103,0.0103,0.0104,0.0134,0.0138,0.0094,0.0095,0.0095,0.0095,0,-0.0226,-0.0236,-0.0242,-0.0242,-0.0234,-0.0235,-0.0207,-0.0195,-0.0172,-0.0145,-0.0108,-0.0056,-0.0012,0.0003,0.0033,0.0059,0.0074,0.0091,0.0111,0.01,0.0132,0.0137,0.009,0.0091,0.0092,0.0093,0,0,-0.0248,-0.0261,-0.0263,-0.0273,-0.0257,-0.0254,-0.0244,-0.0222,-0.0215,-0.0174,-0.0155,-0.0098,-0.0068,-0.0039,0.0002,0.0034,0.0058,0.006,0.0063,0.0083,0.013,0.0132,0.0138,0.0077,0.0078,0.0078,0.0147,0,-0.0273,-0.0304,-0.0297,-0.0317,-0.0329,-0.0301,-0.0296,-0.027,-0.0241,-0.0215,-0.0154,-0.0122,-0.0084,-0.0065,-0.0028,0.0041,0.0071,0.0038,0.0143,0.0146,0.0145,0.0144,0.008,0.0151,0.0152,0.0153,0.0154,0,-0.0298,-0.0317,-0.0348,-0.0361,-0.0363,-0.0368,-0.0354,-0.0344,-0.0296,-0.0273,-0.0227,-0.0176,-0.0115,-0.0088,0.0019,-0.0004,0.0055,0.0106,0.011,0.0136,0.0158,0.0168,0.0164,0.0163,0.0162,0.0162,0.0161,0,-0.0322,-0.0349,-0.0379,-0.0383,-0.039,-0.0397,-0.0395,-0.0363,-0.0359,-0.0308,-0.0294,-0.0213,-0.0173,-0.0086,0.0026,0.0021,0.0142,0.015,0.0208,0.0209,0.0211,0.0211,0.0219,0.0218,0.0218,0.0218,0.0218,0,-0.0346,-0.037,-0.0398,-0.0413,-0.0448,-0.0435,-0.0455,-0.0438,-0.0414,-0.0413,-0.0328,-0.0298,-0.0172,-0.0081,0.0015,0.0132,0.0138,0.0205,0.0228,0.0185,0.0181,0.0215,0.0213,0.0221,0.022,0.022,0.0219,0,-0.0362,-0.0381,-0.0422,-0.0449,-0.0463,-0.0487,-0.051,-0.0524,-0.0488,-0.0481,-0.0466,-0.0362,-0.0246,-0.0111,0.0036,0.0112,0.0228,0.0268,0.0212,0.0231,0.0272,0.0267,0.0328,0.0329,0.0329,0.033,0.033,0,-0.0372,-0.0396,-0.0455,-0.0493,-0.0512,-0.0548,-0.0579,-0.0567,-0.0575,-0.0517,-0.0511,-0.04,-0.0318,-0.0106,0.0037,0.0223,0.0248,0.0307,0.0287,0.0267,0.0284,0.0278,0.0272,0.0331,0.0331,0.0332,0.0332,0,-0.039,-0.0416,-0.0452,-0.0537,-0.0588,-0.0638,-0.0671,-0.0682,-0.066,-0.0627,-0.0551,-0.0426,-0.0293,-0.012,0.0031,0.0165,0.0269,0.0313,0.0312,0.0294,0.0272,0.0286,0.028,0.0334,0.0333,0.0333,0.0333,0,-0.0404,-0.044,-0.0502,-0.0574,-0.065,-0.0711,-0.072,-0.0721,-0.0718,-0.0645,-0.0621,-0.0458,-0.0361,-0.0149,-0.0006,0.0126,0.015,0.0186,0.0192,0.0192,0.0136,0.0087,0.0111,0,0,0,0,0,-0.0412,-0.0463,-0.0538,-0.0622,-0.0703,-0.0744,-0.0779,-0.0774,-0.0748,-0.071,-0.0665,-0.0537,-0.0315,-0.0201,-0.0074,-0.0003,0.0169,0.0151,0.0212,0.0345,0.0342,0.03,0,0,0,0,0,0,-0.0423,-0.0491,-0.0539,-0.0654,-0.0719,-0.0801,-0.0828,-0.0809,-0.0769,-0.0719,-0.0599,-0.0514,-0.0295,-0.0399,-0.0077,-0.0032,0.0023,0.0265,0.0268,0.0346,0.0344,0.0342,0.0298,0,0,0,0,0]}]]